Total_Precipitation_Accumulation
0.12 0.12 0.10 0.10 0.08 0.08 0.07 0.07 0.07 0.06 0.06 0.05 0.04 0.04 0.05 0.06 0.05 0.06 0.06 0.06 0.04 0.03 0.04 0.02 0.03 0.03 0.03 0.03 0.01 0.00 0.01 0.00 0.00 0.00 0.00 0.00 0.00 0.00 0.00 0.00 0.00 0.00 0.00 0.00 0.01 0.00 0.01 0.00 0.00 0.01 0.01 0.01 0.01 0.06 0.01 0.03 0.14 0.34 1.80 1.61 2.49 2.52 2.80 3.57 4.19 4.01 2.79 3.50 2.72 2.19 2.10 2.53 1.84 1.13 1.55 0.70 1.06 1.05 0.61 0.96 0.76 0.90 1.17 1.19 0.85 0.70 0.52 0.26
0.12 0.11 0.09 0.08 0.07 0.08 0.07 0.06 0.06 0.06 0.04 0.05 0.05 0.04 0.06 0.05 0.05 0.04 0.05 0.05 0.05 0.05 0.04 0.05 0.03 0.03 0.04 0.01 0.00 0.00 0.02 0.00 0.00 0.00 0.00 0.00 0.00 0.00 0.00 0.00 0.00 0.00 0.00 0.00 0.00 0.00 0.00 0.00 0.00 0.00 0.01 0.04 0.00 0.02 0.02 0.11 0.04 0.45 0.82 1.78 2.66 1.79 1.57 1.92 1.95 3.35 3.56 2.47 2.28 2.28 1.85 2.19 2.23 0.82 1.13 2.32 1.40 1.05 0.78 1.18 1.34 1.04 0.95 0.91 0.79 0.68 0.54 0.24
0.12 0.10 0.10 0.08 0.08 0.08 0.07 0.07 0.06 0.04 0.05 0.04 0.05 0.07 0.06 0.07 0.05 0.05 0.03 0.03 0.04 0.05 0.05 0.03 0.03 0.03 0.02 0.02 0.00 0.01 0.02 0.00 0.00 0.00 0.00 0.00 0.00 0.00 0.00 0.00 0.00 0.00 0.00 0.00 0.00 0.00 0.00 0.00 0.00 0.00 0.00 0.02 0.01 0.06 0.01 0.15 0.08 0.34 0.67 2.13 2.52 1.12 1.69 1.29 2.73 2.73 3.14 2.36 2.11 2.20 1.42 2.24 1.66 1.95 0.84 1.51 1.52 1.41 1.40 1.55 0.96 1.54 1.42 1.01 0.97 0.74 0.56 0.38
0.11 0.11 0.10 0.10 0.09 0.08 0.08 0.06 0.05 0.04 0.05 0.05 0.05 0.06 0.07 0.06 0.05 0.04 0.04 0.04 0.04 0.04 0.04 0.04 0.03 0.03 0.03 0.00 0.00 0.02 0.00 0.00 0.00 0.00 0.00 0.00 0.00 0.00 0.00 0.00 0.00 0.00 0.00 0.00 0.00 0.00 0.00 0.00 0.00 0.00 0.03 0.01 0.01 0.01 0.05 0.07 0.15 1.11 0.61 1.18 2.29 1.01 1.33 1.48 2.55 2.93 2.58 2.42 2.97 1.94 1.86 1.83 1.48 1.64 1.36 1.18 1.89 1.54 1.85 1.18 1.88 2.06 1.65 0.83 1.00 0.70 0.59 0.56
0.13 0.10 0.12 0.11 0.09 0.08 0.06 0.06 0.04 0.04 0.04 0.05 0.05 0.06 0.06 0.05 0.04 0.03 0.04 0.04 0.04 0.03 0.04 0.03 0.03 0.03 0.00 0.00 0.01 0.00 0.00 0.00 0.00 0.00 0.00 0.00 0.00 0.00 0.00 0.00 0.00 0.00 0.00 0.00 0.00 0.00 0.00 0.00 0.00 0.01 0.01 0.02 0.03 0.02 0.02 0.03 0.01 0.09 0.48 0.59 0.81 0.83 1.17 1.14 1.33 1.38 1.99 3.07 4.03 2.20 1.74 2.33 1.79 0.85 1.10 1.12 1.92 2.44 1.03 1.31 1.42 1.72 1.73 1.23 0.96 0.82 0.64 0.79
0.13 0.13 0.10 0.11 0.09 0.05 0.06 0.04 0.04 0.05 0.05 0.06 0.06 0.05 0.06 0.05 0.04 0.05 0.04 0.04 0.03 0.03 0.02 0.03 0.03 0.01 0.01 0.00 0.01 0.01 0.00 0.00 0.00 0.00 0.00 0.00 0.00 0.00 0.00 0.00 0.00 0.00 0.00 0.00 0.00 0.00 0.00 0.00 0.00 0.02 0.01 0.02 0.01 0.03 0.00 0.03 0.03 0.81 0.63 0.58 0.57 0.42 0.95 0.52 1.08 1.87 2.50 2.54 2.71 1.68 2.27 1.53 1.42 1.42 1.26 1.01 2.30 1.64 0.99 0.70 1.08 1.09 1.13 1.29 0.86 0.86 0.70 0.53
0.12 0.14 0.12 0.08 0.06 0.06 0.05 0.05 0.06 0.05 0.06 0.06 0.07 0.05 0.04 0.04 0.04 0.04 0.03 0.02 0.03 0.03 0.03 0.02 0.02 0.01 0.00 0.01 0.00 0.00 0.00 0.00 0.00 0.00 0.00 0.00 0.00 0.00 0.00 0.00 0.00 0.00 0.00 0.00 0.00 0.00 0.00 0.00 0.00 0.00 0.00 0.02 0.00 0.00 0.00 0.00 0.06 0.11 0.75 0.44 0.70 0.52 0.23 0.46 1.28 2.19 2.29 2.05 2.55 2.56 1.70 1.76 1.42 1.70 0.89 1.46 0.96 1.07 0.58 0.95 0.90 1.04 1.33 1.36 1.29 0.89 0.90 0.64
0.13 0.11 0.09 0.08 0.06 0.05 0.05 0.06 0.06 0.07 0.05 0.06 0.05 0.05 0.03 0.03 0.03 0.02 0.02 0.02 0.03 0.02 0.02 0.02 0.02 0.00 0.01 0.00 0.00 0.00 0.00 0.00 0.00 0.00 0.00 0.00 0.00 0.00 0.00 0.00 0.00 0.00 0.00 0.00 0.00 0.00 0.00 0.00 0.00 0.00 0.00 0.01 0.01 0.03 0.00 0.06 0.08 0.24 0.28 0.40 0.48 0.62 0.51 0.76 0.98 2.19 3.16 4.65 3.43 2.35 1.83 2.30 1.28 1.12 0.53 1.13 0.62 0.60 0.73 0.26 0.69 0.87 1.37 1.06 0.91 0.91 0.82 0.57
0.11 0.10 0.09 0.07 0.05 0.05 0.05 0.05 0.06 0.06 0.06 0.04 0.04 0.04 0.04 0.03 0.03 0.02 0.02 0.01 0.02 0.02 0.01 0.03 0.00 0.00 0.04 0.01 0.00 0.00 0.00 0.00 0.00 0.00 0.00 0.00 0.00 0.00 0.00 0.00 0.00 0.00 0.00 0.00 0.00 0.00 0.00 0.00 0.00 0.00 0.00 0.00 0.00 0.00 0.00 0.02 0.49 0.07 0.37 0.12 0.35 0.56 0.61 1.11 1.19 1.71 1.80 2.64 3.45 3.41 3.02 2.33 1.37 0.68 1.36 1.41 0.84 0.78 0.35 0.37 0.21 0.45 0.44 0.91 0.94 1.29 0.65 1.06
0.11 0.09 0.08 0.06 0.06 0.05 0.05 0.04 0.05 0.06 0.04 0.05 0.04 0.04 0.04 0.02 0.02 0.01 0.01 0.02 0.01 0.02 0.01 0.01 0.00 0.01 0.00 0.00 0.00 0.00 0.00 0.00 0.00 0.00 0.00 0.00 0.00 0.00 0.00 0.00 0.00 0.00 0.00 0.00 0.00 0.00 0.00 0.00 0.00 0.00 0.00 0.00 0.00 0.01 0.00 0.03 0.91 0.02 0.12 0.45 0.49 1.00 0.74 1.16 1.02 1.16 1.96 2.18 2.77 4.20 3.60 2.97 1.38 0.72 1.46 1.28 0.43 0.36 0.59 0.20 0.19 0.69 0.68 0.54 0.56 0.97 0.64 0.94
0.11 0.10 0.08 0.07 0.06 0.05 0.05 0.05 0.05 0.05 0.05 0.04 0.04 0.03 0.02 0.03 0.02 0.02 0.01 0.01 0.01 0.01 0.02 0.01 0.00 0.01 0.00 0.00 0.00 0.00 0.00 0.00 0.00 0.00 0.00 0.00 0.00 0.00 0.00 0.00 0.00 0.00 0.00 0.00 0.00 0.00 0.00 0.00 0.00 0.00 0.00 0.04 0.00 0.00 0.00 0.12 0.01 0.04 0.07 0.34 0.61 0.73 0.73 1.04 1.80 1.19 1.97 2.71 2.87 6.20 4.92 3.25 2.49 1.20 1.50 0.82 0.42 0.61 0.68 0.26 0.26 0.16 0.29 0.46 0.57 0.98 1.34 0.83
0.10 0.10 0.07 0.05 0.05 0.06 0.04 0.05 0.05 0.04 0.05 0.04 0.03 0.03 0.03 0.02 0.02 0.01 0.01 0.01 0.01 0.01 0.01 0.01 0.00 0.00 0.00 0.00 0.00 0.00 0.00 0.00 0.00 0.00 0.00 0.00 0.00 0.00 0.00 0.00 0.00 0.00 0.00 0.00 0.00 0.00 0.00 0.00 0.00 0.00 0.01 0.00 0.02 0.00 0.00 0.00 0.06 0.02 0.18 0.72 0.96 1.17 1.26 1.48 1.77 2.25 2.44 2.07 2.90 4.09 4.05 4.64 5.19 2.49 1.21 0.74 0.44 0.46 0.59 0.25 0.75 0.53 0.44 0.40 0.50 0.66 0.70 1.25
0.09 0.09 0.06 0.03 0.04 0.06 0.05 0.04 0.05 0.05 0.04 0.03 0.03 0.02 0.02 0.02 0.01 0.01 0.01 0.00 0.00 0.01 0.02 0.01 0.01 0.00 0.00 0.00 0.00 0.00 0.00 0.00 0.00 0.00 0.00 0.00 0.00 0.00 0.00 0.00 0.00 0.00 0.00 0.00 0.00 0.00 0.00 0.00 0.00 0.00 0.00 0.00 0.00 0.04 0.18 0.01 0.05 0.03 0.07 0.57 0.64 1.07 1.58 1.35 2.10 2.46 2.27 2.81 2.63 2.77 3.42 2.87 3.70 3.67 1.29 0.58 0.64 0.56 0.35 0.53 0.18 0.69 0.68 0.33 0.42 0.59 0.31 0.62
0.09 0.06 0.05 0.05 0.05 0.06 0.06 0.05 0.04 0.05 0.03 0.02 0.02 0.02 0.02 0.01 0.01 0.00 0.00 0.00 0.00 0.01 0.01 0.00 0.01 0.00 0.00 0.00 0.00 0.00 0.00 0.00 0.00 0.00 0.00 0.00 0.00 0.00 0.00 0.00 0.00 0.00 0.00 0.00 0.00 0.00 0.00 0.00 0.00 0.00 0.00 0.00 0.01 0.00 0.34 0.03 0.02 0.35 0.19 0.28 0.85 0.84 2.08 1.34 1.21 1.94 2.08 1.77 1.41 2.03 2.78 2.52 3.52 1.98 1.76 1.41 1.40 0.45 0.58 0.39 0.38 0.51 0.59 0.73 0.50 0.32 0.37 0.29
0.09 0.06 0.07 0.06 0.06 0.06 0.06 0.05 0.04 0.03 0.03 0.02 0.02 0.02 0.01 0.00 0.00 0.00 0.00 0.00 0.01 0.01 0.00 0.02 0.00 0.00 0.00 0.00 0.00 0.00 0.00 0.00 0.00 0.00 0.00 0.00 0.00 0.00 0.00 0.00 0.00 0.00 0.00 0.00 0.00 0.00 0.00 0.00 0.00 0.00 0.00 0.00 0.00 0.03 0.06 0.06 0.03 0.12 0.20 0.80 0.35 0.57 2.56 1.32 0.79 1.59 1.53 1.44 1.49 1.31 2.60 2.82 2.39 1.88 1.34 2.53 2.99 1.13 0.79 0.35 0.20 0.79 0.94 0.39 0.33 0.43 0.27 0.35
0.07 0.09 0.06 0.07 0.07 0.05 0.04 0.03 0.02 0.03 0.03 0.02 0.01 0.01 0.00 0.00 0.00 0.00 0.00 0.00 0.00 0.01 0.02 0.00 0.00 0.00 0.00 0.00 0.00 0.00 0.00 0.00 0.00 0.00 0.00 0.00 0.00 0.00 0.00 0.00 0.00 0.00 0.00 0.00 0.00 0.00 0.00 0.00 0.00 0.00 0.00 0.00 0.00 0.01 0.12 0.12 0.20 0.07 0.12 0.31 0.60 0.49 1.28 1.70 1.72 1.38 1.66 1.88 1.85 2.12 2.96 2.20 1.98 1.80 1.52 1.26 2.05 0.95 0.47 0.49 0.17 0.42 0.46 0.27 0.41 0.17 0.15 0.26
0.08 0.07 0.05 0.05 0.06 0.04 0.03 0.02 0.03 0.02 0.02 0.02 0.01 0.00 0.00 0.00 0.00 0.00 0.00 0.01 0.01 0.01 0.00 0.00 0.00 0.00 0.00 0.00 0.00 0.00 0.00 0.00 0.00 0.00 0.00 0.00 0.00 0.00 0.00 0.00 0.00 0.00 0.00 0.00 0.00 0.00 0.00 0.00 0.00 0.00 0.00 0.00 0.00 0.02 0.17 0.21 0.43 0.22 0.06 0.47 0.93 0.95 0.85 2.12 0.87 1.64 1.74 1.96 2.26 1.05 1.93 1.95 1.08 1.43 1.26 1.28 1.41 0.94 0.30 0.27 0.38 0.89 0.47 0.22 0.22 0.13 0.15 0.37
0.07 0.04 0.04 0.04 0.05 0.06 0.05 0.02 0.04 0.02 0.02 0.01 0.00 0.00 0.00 0.00 0.00 0.00 0.00 0.00 0.00 0.00 0.00 0.00 0.00 0.00 0.00 0.00 0.00 0.00 0.00 0.00 0.00 0.00 0.00 0.00 0.00 0.00 0.00 0.00 0.00 0.00 0.00 0.00 0.00 0.00 0.00 0.00 0.00 0.00 0.00 0.00 0.00 0.02 0.07 0.34 0.19 0.24 0.46 0.31 0.73 0.52 1.01 1.30 0.92 1.33 1.39 1.41 2.13 1.47 1.92 1.83 1.55 0.82 1.44 1.14 1.37 0.96 0.49 0.29 0.70 0.60 0.16 0.24 0.14 0.36 0.58 0.50
0.07 0.05 0.05 0.03 0.05 0.07 0.05 0.04 0.02 0.03 0.02 0.01 0.00 0.00 0.00 0.01 0.00 0.00 0.00 0.00 0.00 0.00 0.00 0.00 0.00 0.00 0.00 0.00 0.00 0.00 0.00 0.00 0.00 0.00 0.00 0.00 0.00 0.00 0.00 0.00 0.00 0.00 0.00 0.00 0.00 0.00 0.00 0.00 0.00 0.00 0.00 0.00 0.00 0.00 0.05 0.11 0.03 0.19 0.35 0.60 0.76 1.09 1.34 1.62 1.05 0.68 0.89 1.64 1.81 2.07 1.85 2.16 1.65 2.11 2.23 2.17 1.05 1.37 0.63 0.79 0.93 0.45 0.38 0.49 0.69 0.53 0.86 0.51
0.06 0.07 0.05 0.04 0.03 0.05 0.06 0.03 0.02 0.02 0.03 0.01 0.00 0.00 0.00 0.00 0.00 0.00 0.00 0.00 0.00 0.00 0.00 0.00 0.00 0.00 0.00 0.00 0.00 0.00 0.00 0.00 0.00 0.00 0.00 0.00 0.00 0.00 0.00 0.00 0.00 0.00 0.00 0.00 0.00 0.00 0.00 0.00 0.00 0.00 0.00 0.00 0.01 0.01 0.03 0.01 0.03 0.04 0.11 0.22 0.77 0.52 0.79 0.82 1.11 0.90 1.49 1.99 1.76 2.59 2.08 2.01 1.61 1.86 2.20 2.65 1.85 1.79 1.29 1.31 1.49 0.79 0.91 1.08 1.41 1.36 0.52 0.52
0.06 0.05 0.05 0.03 0.04 0.04 0.04 0.02 0.02 0.02 0.05 0.01 0.00 0.00 0.00 0.00 0.00 0.00 0.00 0.00 0.00 0.00 0.00 0.00 0.00 0.00 0.00 0.00 0.00 0.00 0.00 0.00 0.00 0.00 0.00 0.00 0.00 0.00 0.00 0.00 0.00 0.00 0.00 0.00 0.00 0.00 0.00 0.00 0.00 0.00 0.00 0.00 0.00 0.00 0.01 0.02 0.02 0.12 0.07 0.32 0.47 0.50 1.00 0.94 1.18 1.27 2.43 1.69 1.97 2.13 2.47 2.81 2.38 2.21 2.26 2.61 1.63 1.47 0.84 0.80 0.92 1.54 0.79 1.56 1.11 1.19 1.23 1.07
0.05 0.06 0.04 0.03 0.03 0.04 0.03 0.02 0.01 0.02 0.03 0.00 0.00 0.00 0.00 0.00 0.00 0.00 0.00 0.00 0.00 0.00 0.00 0.00 0.00 0.00 0.00 0.00 0.00 0.00 0.00 0.00 0.00 0.00 0.00 0.00 0.00 0.00 0.00 0.00 0.00 0.00 0.00 0.00 0.00 0.00 0.00 0.00 0.00 0.00 0.00 0.00 0.00 0.00 0.00 0.03 0.04 0.04 0.12 0.39 0.59 0.48 0.62 0.79 1.67 1.30 2.02 1.58 2.97 2.92 2.82 3.67 3.13 2.65 2.67 2.44 1.50 1.79 1.39 1.15 1.69 0.97 1.13 1.12 1.33 0.77 1.03 1.32
0.09 0.07 0.06 0.04 0.03 0.02 0.01 0.01 0.01 0.03 0.00 0.00 0.00 0.00 0.00 0.00 0.00 0.00 0.00 0.00 0.00 0.00 0.00 0.00 0.00 0.00 0.00 0.00 0.00 0.00 0.00 0.00 0.00 0.00 0.00 0.00 0.00 0.00 0.00 0.00 0.00 0.00 0.00 0.00 0.00 0.00 0.00 0.00 0.00 0.00 0.00 0.00 0.00 0.00 0.00 0.00 0.01 0.02 0.04 0.14 0.23 0.70 0.31 0.72 1.75 1.73 2.80 1.02 3.03 2.41 1.64 3.15 3.84 3.33 3.29 2.56 1.76 2.10 2.54 1.92 1.24 1.73 1.95 1.43 1.17 1.09 0.70 1.02
0.08 0.08 0.05 0.04 0.05 0.02 0.03 0.00 0.03 0.02 0.00 0.00 0.00 0.00 0.00 0.00 0.00 0.00 0.00 0.00 0.00 0.00 0.00 0.00 0.00 0.00 0.00 0.00 0.00 0.00 0.00 0.00 0.00 0.00 0.00 0.00 0.00 0.00 0.00 0.00 0.00 0.00 0.00 0.00 0.00 0.00 0.00 0.00 0.00 0.00 0.00 0.00 0.00 0.00 0.00 0.00 0.01 0.00 0.00 0.02 0.12 0.12 0.34 0.42 0.94 0.48 1.75 1.81 1.26 2.52 3.08 3.39 2.61 3.25 2.47 2.54 1.84 2.74 2.38 2.70 2.15 2.03 1.89 1.43 1.46 0.99 1.12 1.22
0.08 0.07 0.06 0.07 0.03 0.03 0.00 0.01 0.00 0.00 0.00 0.00 0.00 0.00 0.00 0.00 0.00 0.00 0.00 0.00 0.00 0.00 0.00 0.00 0.00 0.00 0.00 0.00 0.00 0.00 0.00 0.00 0.00 0.00 0.00 0.00 0.00 0.00 0.00 0.00 0.00 0.00 0.00 0.00 0.00 0.00 0.00 0.00 0.00 0.00 0.00 0.00 0.00 0.00 0.00 0.00 0.01 0.00 0.00 0.02 0.03 0.03 0.40 0.13 0.21 0.20 0.82 1.60 0.86 0.98 2.17 3.56 1.71 1.88 1.37 1.91 2.17 2.04 2.33 2.32 2.09 1.67 1.49 0.68 0.94 0.88 1.73 2.40
0.06 0.08 0.06 0.07 0.04 0.02 0.02 0.00 0.00 0.00 0.00 0.00 0.00 0.00 0.00 0.00 0.00 0.00 0.00 0.00 0.01 0.00 0.00 0.00 0.00 0.00 0.00 0.00 0.00 0.00 0.00 0.00 0.00 0.00 0.00 0.00 0.00 0.00 0.00 0.00 0.00 0.00 0.00 0.00 0.00 0.00 0.00 0.00 0.00 0.00 0.00 0.00 0.00 0.01 0.00 0.00 0.00 0.00 0.04 0.00 0.00 0.03 0.24 0.20 0.29 0.46 0.75 1.47 1.39 0.67 1.02 2.61 1.89 1.76 1.92 2.01 1.60 2.08 2.75 1.93 1.98 1.95 1.53 0.82 0.88 1.17 1.59 3.02
0.06 0.06 0.10 0.05 0.05 0.04 0.00 0.00 0.00 0.00 0.00 0.00 0.00 0.00 0.00 0.00 0.00 0.00 0.00 0.00 0.02 0.00 0.00 0.00 0.00 0.00 0.00 0.00 0.00 0.00 0.00 0.00 0.00 0.00 0.00 0.00 0.00 0.00 0.00 0.00 0.00 0.00 0.00 0.00 0.00 0.00 0.00 0.00 0.00 0.00 0.00 0.00 0.00 0.00 0.00 0.00 0.00 0.02 0.00 0.02 0.01 0.04 0.08 0.03 0.20 0.40 0.84 0.49 0.94 0.84 0.41 1.52 1.86 1.68 1.33 1.96 1.90 1.86 2.23 1.60 2.29 2.13 1.17 1.26 0.64 1.30 2.12 2.81
0.07 0.07 0.07 0.07 0.03 0.10 0.01 0.00 0.00 0.00 0.00 0.00 0.00 0.00 0.00 0.00 0.00 0.00 0.00 0.08 0.00 0.00 0.00 0.00 0.00 0.00 0.00 0.00 0.00 0.00 0.02 0.00 0.00 0.00 0.00 0.00 0.00 0.00 0.00 0.00 0.00 0.00 0.00 0.00 0.01 0.00 0.00 0.00 0.00 0.00 0.00 0.00 0.00 0.00 0.02 0.00 0.00 0.02 0.01 0.01 0.01 0.09 0.03 0.01 0.03 0.13 0.26 0.17 0.92 0.60 0.45 1.01 1.18 1.76 1.05 1.73 2.54 2.12 2.18 2.19 1.61 1.65 1.13 0.81 0.87 0.86 1.16 2.19
0.06 0.08 0.07 0.05 0.04 0.01 0.02 0.00 0.00 0.00 0.00 0.00 0.00 0.00 0.00 0.00 0.00 0.00 0.04 0.14 0.00 0.00 0.00 0.00 0.00 0.00 0.00 0.00 0.00 0.00 0.00 0.00 0.03 0.00 0.00 0.00 0.00 0.00 0.00 0.00 0.00 0.00 0.00 0.00 0.00 0.00 0.00 0.00 0.00 0.00 0.00 0.00 0.00 0.00 0.00 0.00 0.00 0.00 0.00 0.00 0.00 0.04 0.07 0.05 0.10 0.24 0.29 0.13 0.41 0.27 0.44 0.70 1.23 1.77 1.36 1.67 1.76 1.32 1.39 1.58 1.38 1.60 1.06 0.77 0.80 0.89 0.95 1.44
0.07 0.06 0.08 0.05 0.05 0.02 0.00 0.01 0.00 0.00 0.00 0.00 0.00 0.00 0.00 0.00 0.00 0.04 0.04 0.08 0.00 0.00 0.00 0.00 0.00 0.00 0.00 0.00 0.00 0.00 0.00 0.00 0.00 0.00 0.00 0.00 0.00 0.00 0.00 0.00 0.00 0.00 0.00 0.00 0.00 0.00 0.00 0.00 0.00 0.00 0.00 0.00 0.00 0.00 0.01 0.03 0.00 0.00 0.00 0.00 0.01 0.02 0.02 0.07 0.30 0.53 0.39 0.23 0.22 0.14 0.28 0.21 1.33 1.32 0.90 1.49 0.82 0.88 0.89 1.37 1.35 1.27 1.01 0.90 0.83 0.67 0.76 1.15
0.06 0.05 0.05 0.11 0.01 0.00 0.00 0.00 0.00 0.00 0.00 0.00 0.00 0.00 0.00 0.00 0.02 0.07 0.14 0.02 0.00 0.00 0.00 0.00 0.00 0.00 0.00 0.00 0.00 0.00 0.00 0.00 0.00 0.00 0.00 0.00 0.00 0.00 0.00 0.00 0.00 0.00 0.00 0.00 0.02 0.00 0.00 0.00 0.00 0.00 0.00 0.00 0.00 0.04 0.00 0.01 0.02 0.00 0.01 0.20 0.09 0.27 0.57 0.52 1.15 1.33 0.40 0.30 0.16 0.30 0.38 0.46 0.85 1.81 1.24 0.46 0.37 0.30 0.54 1.16 1.51 1.41 0.84 0.79 0.91 1.08 0.85 1.46
0.04 0.05 0.03 0.07 0.00 0.02 0.00 0.00 0.00 0.00 0.00 0.00 0.00 0.00 0.00 0.10 0.08 0.13 0.08 0.00 0.07 0.00 0.00 0.00 0.00 0.00 0.00 0.00 0.00 0.00 0.00 0.00 0.00 0.00 0.00 0.00 0.00 0.00 0.00 0.00 0.00 0.04 0.00 0.00 0.00 0.00 0.00 0.00 0.00 0.00 0.00 0.00 0.00 0.01 0.01 0.00 0.00 0.00 0.03 0.05 0.24 0.77 1.09 0.54 1.23 0.72 0.47 0.68 0.67 0.51 0.69 1.38 0.47 0.58 0.48 0.43 0.28 0.67 0.45 0.52 0.67 1.04 1.01 0.83 0.83 1.06 1.65 1.62
0.04 0.03 0.05 0.02 0.02 0.01 0.00 0.00 0.00 0.00 0.00 0.00 0.00 0.00 0.01 0.21 0.19 0.07 0.09 0.00 0.05 0.00 0.00 0.00 0.00 0.00 0.00 0.00 0.00 0.00 0.00 0.03 0.00 0.00 0.00 0.00 0.00 0.00 0.00 0.00 0.00 0.00 0.06 0.01 0.00 0.00 0.00 0.00 0.00 0.00 0.00 0.00 0.00 0.01 0.05 0.00 0.08 0.01 0.03 0.06 0.06 0.30 0.27 0.38 0.29 0.25 0.37 0.26 0.39 0.55 0.93 0.78 0.48 0.36 0.17 0.39 0.45 0.29 0.55 0.59 0.51 0.94 0.87 0.82 0.72 1.05 1.19 1.21
0.03 0.06 0.02 0.00 0.00 0.00 0.00 0.00 0.00 0.00 0.00 0.00 0.00 0.00 0.06 0.10 0.21 0.02 0.01 0.00 0.01 0.00 0.00 0.01 0.00 0.00 0.00 0.03 0.01 0.00 0.01 0.00 0.00 0.01 0.00 0.01 0.00 0.00 0.00 0.00 0.00 0.00 0.00 0.01 0.00 0.00 0.03 0.00 0.00 0.00 0.00 0.00 0.00 0.00 0.00 0.02 0.00 0.08 0.02 0.03 0.05 0.14 0.20 0.50 0.43 0.66 0.34 0.90 0.58 0.69 0.35 1.28 0.72 4.08 0.32 0.60 0.20 0.21 0.19 0.31 0.40 0.60 1.18 1.32 1.38 1.23 1.25 1.35
0.03 0.03 0.01 0.00 0.00 0.00 0.00 0.00 0.00 0.00 0.00 0.00 0.00 0.10 0.18 0.08 0.05 0.04 0.01 0.00 0.00 0.00 0.00 0.00 0.00 0.00 0.01 0.00 0.00 0.00 0.00 0.01 0.00 0.00 0.00 0.00 0.00 0.01 0.00 0.00 0.00 0.00 0.00 0.01 0.00 0.00 0.00 0.00 0.00 0.00 0.00 0.00 0.00 0.00 0.00 0.01 0.01 0.02 0.09 0.04 0.02 0.03 0.01 0.10 0.27 0.20 0.23 0.34 0.49 0.85 0.61 0.61 1.12 0.54 0.45 0.39 0.39 0.31 0.31 0.51 0.66 1.27 1.20 1.36 1.48 1.63 1.37 1.44
0.04 0.00 0.00 0.00 0.00 0.00 0.00 0.00 0.00 0.00 0.00 0.00 0.06 0.17 0.25 0.05 0.09 0.00 0.01 0.00 0.00 0.00 0.00 0.00 0.00 0.00 0.00 0.01 0.00 0.01 0.00 0.00 0.01 0.00 0.00 0.00 0.00 0.02 0.00 0.00 0.00 0.00 0.00 0.02 0.02 0.04 0.00 0.01 0.00 0.00 0.00 0.00 0.00 0.00 0.00 0.00 0.05 0.02 0.02 0.06 0.00 0.01 0.01 0.16 0.04 0.07 0.08 0.22 0.43 0.26 0.49 0.38 0.22 0.45 0.45 0.86 0.91 0.65 0.51 0.54 0.43 1.11 1.24 1.11 1.20 1.21 1.57 1.28
0.00 0.00 0.01 0.00 0.00 0.00 0.00 0.00 0.00 0.00 0.00 0.00 0.16 0.36 0.06 0.03 0.00 0.00 0.00 0.00 0.00 0.00 0.00 0.00 0.00 0.00 0.00 0.05 0.03 0.00 0.00 0.00 0.00 0.00 0.03 0.00 0.01 0.00 0.00 0.00 0.00 0.00 0.00 0.00 0.01 0.01 0.01 0.05 0.00 0.00 0.00 0.00 0.00 0.00 0.00 0.00 0.00 0.01 0.07 0.01 0.00 0.00 0.08 0.05 0.33 0.17 0.23 0.39 0.94 0.25 0.52 0.91 0.62 2.37 0.74 1.13 1.04 1.07 0.53 0.39 0.73 0.91 0.88 1.25 0.89 1.38 1.38 1.74
0.00 0.00 0.00 0.00 0.00 0.00 0.00 0.00 0.00 0.00 0.00 0.07 0.16 0.01 0.00 0.04 0.00 0.00 0.00 0.00 0.00 0.00 0.00 0.00 0.00 0.00 0.00 0.00 0.05 0.01 0.00 0.00 0.01 0.00 0.04 0.00 0.06 0.00 0.00 0.00 0.00 0.00 0.00 0.00 0.01 0.02 0.00 0.04 0.00 0.00 0.00 0.00 0.00 0.00 0.03 0.01 0.00 0.01 0.02 0.01 0.05 0.22 0.18 0.05 0.10 0.32 0.35 0.54 0.65 0.60 0.70 0.61 0.81 1.53 0.60 0.81 0.64 0.70 0.68 0.98 1.23 1.09 1.32 1.75 1.76 1.54 1.73 1.65
0.00 0.00 0.00 0.00 0.00 0.00 0.00 0.00 0.00 0.00 0.03 0.16 0.08 0.05 0.01 0.01 0.00 0.00 0.00 0.00 0.00 0.00 0.00 0.00 0.01 0.00 0.00 0.00 0.02 0.00 0.01 0.03 0.00 0.01 0.03 0.02 0.11 0.00 0.00 0.00 0.00 0.00 0.00 0.00 0.00 0.00 0.00 0.02 0.01 0.00 0.00 0.00 0.00 0.00 0.04 0.00 0.01 0.00 0.00 0.02 0.00 0.06 0.06 0.12 0.04 0.25 0.20 0.51 0.32 1.51 0.92 1.46 1.23 1.68 0.46 0.98 0.89 0.68 0.76 0.51 0.75 1.31 1.58 1.95 2.13 1.96 1.55 1.68
0.00 0.01 0.00 0.00 0.00 0.00 0.00 0.00 0.00 0.01 0.11 0.37 0.09 0.07 0.01 0.01 0.00 0.00 0.00 0.00 0.00 0.00 0.06 0.00 0.00 0.00 0.00 0.00 0.00 0.01 0.01 0.01 0.01 0.03 0.02 0.02 0.00 0.00 0.00 0.00 0.00 0.00 0.00 0.00 0.00 0.00 0.01 0.00 0.05 0.03 0.00 0.00 0.05 0.00 0.02 0.01 0.02 0.01 0.00 0.01 0.01 0.00 0.14 0.03 0.04 0.04 0.25 0.26 0.29 0.56 1.09 1.23 1.08 0.65 0.88 0.89 0.58 0.44 0.52 0.70 1.37 2.06 2.07 2.04 1.71 2.44 2.63 2.04
0.00 0.00 0.01 0.00 0.00 0.00 0.00 0.00 0.03 0.10 0.07 0.11 0.01 0.02 0.01 0.01 0.00 0.00 0.00 0.00 0.00 0.00 0.00 0.00 0.00 0.00 0.00 0.01 0.02 0.00 0.00 0.00 0.01 0.02 0.01 0.01 0.00 0.02 0.00 0.00 0.00 0.00 0.00 0.00 0.00 0.00 0.00 0.00 0.03 0.03 0.06 0.03 0.07 0.00 0.01 0.00 0.00 0.01 0.01 0.04 0.05 0.03 0.12 0.16 0.60 0.03 0.03 0.12 0.37 0.41 1.04 1.34 0.96 0.98 0.94 1.68 1.51 1.43 1.02 1.28 1.70 2.12 2.23 2.12 2.23 2.95 2.75 1.64
0.00 0.06 0.00 0.00 0.00 0.00 0.00 0.09 0.07 0.05 0.06 0.13 0.15 0.01 0.02 0.00 0.01 0.00 0.00 0.00 0.00 0.00 0.00 0.00 0.00 0.00 0.00 0.00 0.00 0.01 0.00 0.00 0.02 0.02 0.01 0.04 0.00 0.00 0.00 0.00 0.00 0.00 0.00 0.04 0.06 0.06 0.00 0.03 0.01 0.17 0.04 0.07 0.01 0.01 0.00 0.00 0.00 0.00 0.00 0.03 0.01 0.01 0.01 0.05 0.07 0.19 0.02 0.12 0.04 0.32 0.50 2.27 0.60 1.00 1.00 0.98 0.77 0.85 0.95 1.14 1.50 1.85 1.57 1.98 1.91 2.30 2.71 1.96
0.00 0.01 0.00 0.00 0.00 0.00 0.00 0.06 0.03 0.02 0.08 0.04 0.01 0.03 0.01 0.02 0.01 0.04 0.01 0.03 0.02 0.05 0.02 0.01 0.00 0.01 0.01 0.00 0.00 0.00 0.00 0.01 0.02 0.03 0.08 0.02 0.05 0.00 0.00 0.00 0.00 0.00 0.00 0.00 0.00 0.01 0.00 0.03 0.03 0.03 0.02 0.02 0.00 0.01 0.00 0.00 0.01 0.00 0.00 0.00 0.00 0.04 0.01 0.07 0.10 0.08 0.20 0.25 0.12 0.58 0.55 1.84 0.73 0.57 1.00 1.45 1.11 0.88 1.04 0.99 1.37 1.19 0.96 1.02 2.73 1.89 2.70 2.38
0.00 0.01 0.00 0.00 0.00 0.00 0.02 0.15 0.15 0.07 0.01 0.01 0.02 0.03 0.00 0.01 0.01 0.06 0.04 0.05 0.04 0.05 0.04 0.03 0.02 0.04 0.02 0.00 0.01 0.01 0.01 0.02 0.04 0.03 0.05 0.05 0.05 0.01 0.00 0.00 0.00 0.00 0.00 0.03 0.01 0.06 0.01 0.08 0.06 0.25 0.17 0.08 0.12 0.00 0.00 0.00 0.00 0.02 0.03 0.02 0.03 0.01 0.00 0.01 0.03 0.02 0.10 0.15 0.23 0.22 1.04 1.61 1.02 0.51 0.38 0.90 0.72 0.68 0.95 0.99 0.86 0.78 1.22 1.51 1.72 2.41 1.94 2.41
0.02 0.01 0.00 0.00 0.00 0.00 0.07 0.10 0.07 0.09 0.02 0.02 0.05 0.02 0.04 0.03 0.02 0.02 0.03 0.05 0.04 0.05 0.01 0.04 0.08 0.09 0.03 0.02 0.01 0.01 0.01 0.01 0.04 0.04 0.05 0.06 0.05 0.02 0.00 0.00 0.00 0.00 0.00 0.00 0.00 0.00 0.00 0.13 0.08 0.25 0.33 0.36 0.42 0.52 0.70 0.51 0.27 0.19 0.05 0.08 0.05 0.05 0.08 0.08 0.07 0.06 0.03 0.31 0.12 0.27 0.91 0.90 0.91 0.60 0.45 0.66 0.55 0.55 0.73 0.72 0.84 1.03 1.53 1.11 1.31 1.43 2.17 2.38
0.02 0.26 0.01 0.01 0.00 0.02 0.02 0.00 0.02 0.07 0.07 0.03 0.02 0.03 0.01 0.06 0.03 0.03 0.02 0.03 0.01 0.02 0.05 0.05 0.02 0.03 0.09 0.08 0.05 0.02 0.01 0.01 0.02 0.07 0.10 0.12 0.06 0.04 0.02 0.01 0.00 0.00 0.00 0.00 0.01 0.00 0.06 0.03 0.05 0.06 0.11 0.34 0.51 0.15 0.03 0.03 0.08 0.14 0.12 0.05 0.06 0.06 0.03 0.11 0.09 0.13 0.29 0.24 0.31 0.46 0.38 0.59 0.45 0.75 0.42 0.45 0.58 0.56 0.62 0.75 0.81 0.75 0.82 1.26 1.05 1.56 1.76 2.01
0.18 0.07 0.02 0.28 0.02 0.12 0.02 0.09 0.05 0.11 0.09 0.03 0.12 0.04 0.06 0.03 0.01 0.03 0.02 0.16 0.08 0.02 0.02 0.06 0.06 0.06 0.13 0.10 0.10 0.07 0.04 0.02 0.03 0.05 0.11 0.11 0.07 0.04 0.03 0.02 0.01 0.01 0.01 0.00 0.00 0.01 0.02 0.06 0.11 0.06 0.01 0.12 0.19 0.10 0.08 0.05 0.09 0.10 0.20 0.14 0.06 0.08 0.05 0.02 0.09 0.46 0.14 0.08 0.32 0.75 0.52 0.48 0.76 0.49 0.37 0.45 0.47 0.71 0.61 0.61 0.67 0.74 0.85 0.78 1.07 1.26 1.17 2.05
0.28 0.08 0.06 0.42 0.16 0.08 0.13 0.07 0.03 0.06 0.06 0.09 0.39 0.05 0.06 0.03 0.02 0.10 0.01 0.02 0.02 0.08 0.06 0.45 0.08 0.13 0.12 0.09 0.08 0.11 0.12 0.08 0.03 0.06 0.13 0.09 0.11 0.16 0.10 0.07 0.03 0.03 0.01 0.01 0.00 0.01 0.12 0.10 0.22 0.03 0.04 0.04 0.08 0.15 0.37 0.22 0.15 0.13 0.15 0.21 0.41 0.19 0.08 0.10 0.05 0.02 0.11 0.12 0.66 0.80 0.47 0.56 0.60 0.43 0.33 0.38 0.62 0.79 0.92 0.67 0.90 0.61 0.68 0.80 0.69 0.80 1.07 1.45
0.08 0.18 0.04 0.17 0.22 0.15 0.05 0.10 0.02 0.06 0.05 0.06 0.10 0.08 0.03 0.02 0.02 0.04 0.02 0.02 0.01 0.07 0.18 0.21 0.08 0.11 0.10 0.15 0.11 0.19 0.16 0.17 0.23 0.17 0.08 0.16 0.09 0.06 0.08 0.10 0.07 0.02 0.02 0.01 0.01 0.01 0.02 0.14 0.07 0.04 0.11 0.07 0.06 0.06 0.11 0.15 0.13 0.13 0.10 0.11 0.05 0.18 0.31 0.15 0.04 0.05 0.06 0.14 0.14 0.42 0.26 0.47 0.39 0.58 0.69 0.61 0.43 0.84 0.97 0.60 0.71 0.92 1.09 0.91 0.82 0.72 0.87 1.19
0.54 0.32 1.17 0.12 0.49 0.15 0.06 0.06 0.04 0.05 0.05 0.10 0.12 0.17 0.12 0.06 0.06 0.03 0.03 0.03 0.06 0.05 0.12 0.07 0.07 0.07 0.07 0.06 0.09 0.18 0.22 0.06 0.10 0.09 0.04 0.04 0.07 0.06 0.09 0.09 0.11 0.10 0.04 0.05 0.02 0.06 0.02 0.31 0.06 0.12 0.20 0.14 0.08 0.18 0.20 0.28 0.28 0.24 0.13 0.09 0.14 0.19 0.18 0.23 0.27 0.17 0.15 0.17 0.19 0.56 0.25 0.43 0.59 0.46 0.98 0.96 0.80 0.95 0.91 1.41 1.50 1.52 0.85 0.97 1.07 1.13 1.08 1.24
0.42 0.62 1.04 0.84 0.35 0.27 0.21 0.10 0.12 0.19 0.22 0.05 0.09 0.13 0.05 0.11 0.11 0.13 0.06 0.03 0.04 0.12 0.20 0.08 0.05 0.07 0.07 0.07 0.08 0.16 0.06 0.05 0.04 0.03 0.02 0.02 0.10 0.10 0.07 0.18 0.06 0.18 0.15 0.10 0.07 0.08 0.00 0.20 0.03 0.11 0.14 0.17 0.11 0.08 0.03 0.03 0.08 0.13 0.19 0.29 0.23 0.19 0.28 0.22 0.22 0.37 0.30 0.30 0.41 0.55 0.55 0.77 0.72 0.44 1.01 0.86 0.54 0.65 1.29 1.49 1.25 0.73 0.55 0.73 0.58 0.66 0.90 0.96
0.39 0.71 0.70 1.04 0.63 0.33 0.23 0.05 0.09 0.16 0.22 0.13 0.29 0.10 0.12 0.10 0.07 0.14 0.29 0.07 0.09 0.27 0.11 0.14 0.10 0.09 0.10 0.05 0.19 0.14 0.09 0.04 0.03 0.01 0.01 0.01 0.00 0.01 0.02 0.03 0.04 0.05 0.10 0.11 0.09 0.10 0.07 0.13 0.20 0.17 0.16 0.31 0.12 0.07 0.07 0.03 0.03 0.09 0.27 0.15 0.27 0.14 0.23 0.09 0.12 0.20 0.29 0.28 0.69 0.80 1.52 0.65 0.77 0.82 1.06 1.11 0.88 0.97 1.07 1.06 1.12 0.68 0.58 0.79 0.71 0.64 0.90 0.85